Location: Prince Albert
(53.2000°N, 105.7500°W)
Time: 11:20:52
(UTC-06:00)

ISS - Visible Passes

Search period start: 02 December 2020 00:00
Search period end: 12 December 2020 00:00
Orbit: 418 x 420 km, 51.6° (Epoch: 02 December)

Date Brightness Start Highest point End Pass type
(mag) Time Alt. Az. Time Alt. Az. Time Alt. Az.
02 Dec -3.4 17:24:32 10° WSW 17:27:53 67° S 17:31:14 10° E visible
02 Dec -3.1 19:01:16 10° W 19:04:32 49° SSW 19:05:11 42° SSE visible
03 Dec -3.3 18:13:41 10° W 18:17:01 59° S 18:19:41 15° ESE visible
03 Dec -1.4 19:50:41 10° W 19:52:40 22° SW 19:52:40 22° SW visible
04 Dec -3.4 17:26:08 10° W 17:29:28 65° S 17:32:49 10° ESE visible
04 Dec -2.1 19:02:58 10° W 19:05:59 31° SSW 19:07:17 23° SSE visible
05 Dec -2.5 18:15:20 10° W 18:18:30 40° SSW 18:21:41 10° SE visible
05 Dec -0.8 19:53:09 10° WSW 19:54:39 12° SW 19:55:02 12° SSW visible
06 Dec -2.8 17:27:43 10° W 17:30:59 49° SSW 17:34:15 10° ESE visible
06 Dec -1.0 19:04:57 10° WSW 19:07:16 17° SW 19:09:35 10° S visible
07 Dec -1.4 18:17:05 10° W 18:19:51 24° SSW 18:22:36 10° SSE visible
08 Dec -1.8 17:29:20 10° W 17:32:21 31° SSW 17:35:23 10° SE visible
09 Dec -0.5 18:19:29 10° WSW 18:20:59 13° SW 18:22:29 10° SSW visible
10 Dec -0.7 17:31:14 10° W 17:33:33 18° SW 17:35:53 10° S visible
